�������l�o���
Date,Time,MP-1(��Sv/h),MP-2(��Sv/h),MP-3(��Sv/h),MP-4(��Sv/h),MP-5(��Sv/h),MP-6(��Sv/h),MP-7(��Sv/h),MP-8(��Sv/h),����,����(m/s),���J
2021/03/14,00:00,0.614,0.884,0.571,1.103,0.735,0.366,0.640,0.605,���k��,11.3,�L
2021/03/14,00:10,0.616,0.885,0.569,1.103,0.736,0.368,0.640,0.603,���k��,15.2,�L
2021/03/14,00:20,0.616,0.885,0.573,1.104,0.738,0.367,0.641,0.604,���k��,11.0,�L
2021/03/14,00:30,0.616,0.886,0.572,1.105,0.739,0.367,0.643,0.605,���k��,14.4,�L
2021/03/14,00:40,0.616,0.886,0.571,1.108,0.740,0.370,0.641,0.606,���k��,12.2,�L
2021/03/14,00:50,0.617,0.888,0.572,1.109,0.742,0.367,0.643,0.605,���k��,13.6,�L
2021/03/14,01:00,0.617,0.886,0.571,1.108,0.742,0.369,0.643,0.606,���k��,12.7,�L
2021/03/14,01:10,0.618,0.889,0.571,1.110,0.743,0.370,0.645,0.605,���k��,13.0,�L
2021/03/14,01:20,0.620,0.889,0.573,1.112,0.744,0.371,0.644,0.604,���k��,13.3,�L
2021/03/14,01:30,0.616,0.888,0.574,1.112,0.745,0.370,0.643,0.605,���k��,11.4,�L
2021/03/14,01:40,0.617,0.888,0.575,1.113,0.746,0.369,0.645,0.607,���k��,11.6,�L
2021/03/14,01:50,0.620,0.888,0.575,1.116,0.748,0.368,0.644,0.606,���k��,9.6,�L
2021/03/14,02:00,0.619,0.888,0.575,1.114,0.748,0.369,0.645,0.606,���k��,9.7,�L
2021/03/14,02:10,0.617,0.890,0.575,1.116,0.748,0.368,0.645,0.606,���k��,8.6,��
2021/03/14,02:20,0.620,0.890,0.575,1.115,0.750,0.368,0.643,0.607,���k��,10.2,�L
2021/03/14,02:30,0.617,0.890,0.572,1.116,0.751,0.368,0.644,0.607,���k��,9.0,�L
2021/03/14,02:40,0.618,0.889,0.573,1.115,0.751,0.368,0.645,0.605,���k��,6.6,�L
2021/03/14,02:50,0.620,0.891,0.574,1.118,0.753,0.369,0.644,0.608,���k��,7.5,�L
2021/03/14,03:00,0.618,0.890,0.573,1.119,0.754,0.368,0.643,0.607,���k��,8.9,��
2021/03/14,03:10,0.619,0.892,0.572,1.117,0.753,0.367,0.645,0.605,���k��,6.8,��
2021/03/14,03:20,0.620,0.892,0.573,1.119,0.755,0.368,0.645,0.607,���k��,8.0,��
2021/03/14,03:30,0.618,0.889,0.573,1.120,0.756,0.367,0.645,0.607,���k��,6.9,��
2021/03/14,03:40,0.617,0.890,0.573,1.116,0.755,0.368,0.645,0.607,���k��,8.2,��
2021/03/14,03:50,0.620,0.893,0.574,1.120,0.756,0.367,0.646,0.607,���k��,6.7,��
2021/03/14,04:00,0.619,0.892,0.574,1.117,0.756,0.368,0.644,0.607,���k��,6.8,��
2021/03/14,04:10,0.618,0.893,0.574,1.117,0.757,0.367,0.646,0.608,���k��,8.6,��
2021/03/14,04:20,0.619,0.893,0.573,1.119,0.757,0.367,0.646,0.607,���k��,6.0,��
2021/03/14,04:30,0.619,0.894,0.574,1.120,0.758,0.368,0.645,0.608,���k��,6.6,��
2021/03/14,04:40,0.619,0.891,0.577,1.122,0.757,0.367,0.644,0.608,�k��,5.8,�L
2021/03/14,04:50,0.618,0.892,0.575,1.121,0.759,0.368,0.643,0.608,���k��,4.2,��
2021/03/14,05:00,0.619,0.894,0.575,1.119,0.762,0.368,0.645,0.611,�k�k��,4.2,�L
2021/03/14,05:10,0.620,0.894,0.573,1.121,0.759,0.366,0.646,0.608,��,1.1,��
2021/03/14,05:20,0.620,0.894,0.574,1.120,0.761,0.366,0.647,0.608,�k,1.5,��
2021/03/14,05:30,0.620,0.896,0.578,1.118,0.761,0.366,0.646,0.608,�쐼,0.6,��
2021/03/14,05:40,0.620,0.895,0.574,1.121,0.762,0.368,0.646,0.607,�k,2.6,��
2021/03/14,05:50,0.620,0.896,0.576,1.122,0.762,0.368,0.646,0.610,�k,3.5,�L
2021/03/14,06:00,0.619,0.893,0.575,1.122,0.762,0.367,0.645,0.608,�k,2.6,�L
2021/03/14,06:10,0.621,0.897,0.574,1.123,0.764,0.368,0.646,0.609,�k�k��,4.0,�L
2021/03/14,06:20,0.621,0.895,0.576,1.121,0.764,0.369,0.646,0.609,�k��,3.2,�L
2021/03/14,06:30,0.623,0.897,0.576,1.123,0.765,0.367,0.646,0.609,��,3.0,�L
2021/03/14,06:40,0.621,0.896,0.576,1.122,0.766,0.369,0.647,0.608,���k��,4.7,�L
2021/03/14,06:50,0.623,0.896,0.575,1.123,0.764,0.368,0.648,0.612,���k��,6.2,��
2021/03/14,07:00,0.621,0.895,0.576,1.125,0.766,0.368,0.648,0.608,���k��,6.5,��
2021/03/14,07:10,0.622,0.898,0.576,1.125,0.764,0.369,0.647,0.610,���k��,8.4,��
2021/03/14,07:20,0.622,0.898,0.576,1.124,0.764,0.369,0.648,0.608,���k��,6.3,��
2021/03/14,07:30,0.621,0.896,0.575,1.123,0.765,0.368,0.648,0.608,���k��,9.2,��
2021/03/14,07:40,0.622,0.896,0.576,1.124,0.766,0.367,0.646,0.608,���k��,7.6,��
2021/03/14,07:50,0.622,0.899,0.577,1.125,0.767,0.368,0.647,0.609,���k��,7.5,��
2021/03/14,08:00,0.622,0.898,0.575,1.124,0.767,0.367,0.646,0.609,���k��,8.5,��
2021/03/14,08:10,0.622,0.899,0.577,1.125,0.768,0.367,0.648,0.609,���k��,8.4,��
2021/03/14,08:20,0.623,0.898,0.576,1.123,0.767,0.367,0.647,0.611,���k��,6.7,��
2021/03/14,08:30,0.622,0.901,0.576,1.125,0.767,0.368,0.647,0.609,���k��,5.6,��
2021/03/14,08:40,0.622,0.900,0.577,1.128,0.768,0.367,0.648,0.610,���k��,6.7,��
2021/03/14,08:50,0.624,0.900,0.576,1.124,0.769,0.368,0.649,0.609,���k��,6.5,��
2021/03/14,09:00,0.623,0.900,0.576,1.127,0.768,0.369,0.647,0.610,���k��,6.6,��
2021/03/14,09:10,0.624,0.903,0.578,1.125,0.768,0.369,0.647,0.609,��,8.0,��
2021/03/14,09:20,0.624,0.901,0.576,1.128,0.771,0.367,0.647,0.610,��,7.8,��
2021/03/14,09:30,0.626,0.900,0.578,1.129,0.769,0.369,0.647,0.611,��,9.6,��
2021/03/14,09:40,0.622,0.902,0.577,1.127,0.769,0.368,0.647,0.611,���k��,8.9,��
2021/03/14,09:50,0.623,0.902,0.580,1.129,0.770,0.368,0.648,0.610,��,7.1,��
2021/03/14,10:00,0.623,0.903,0.579,1.128,0.772,0.367,0.647,0.611,���k��,6.9,��
2021/03/14,10:10,0.625,0.901,0.579,1.128,0.771,0.366,0.647,0.610,���k��,6.3,��
2021/03/14,10:20,0.625,0.905,0.578,1.129,0.773,0.368,0.649,0.609,��,6.6,��
2021/03/14,10:30,0.625,0.904,0.579,1.127,0.772,0.368,0.647,0.611,���k��,9.6,��
2021/03/14,10:40,0.625,0.904,0.579,1.128,0.773,0.369,0.648,0.612,��,9.0,��
2021/03/14,10:50,0.625,0.902,0.579,1.130,0.773,0.367,0.647,0.612,���k��,9.1,��
2021/03/14,11:00,0.625,0.905,0.578,1.129,0.773,0.368,0.648,0.610,���k��,11.3,��
2021/03/14,11:10,0.625,0.903,0.578,1.130,0.775,0.369,0.648,0.610,���k��,10.2,��
2021/03/14,11:20,0.626,0.905,0.579,1.132,0.773,0.369,0.647,0.611,��,10.5,��
2021/03/14,11:30,0.626,0.904,0.578,1.131,0.775,0.368,0.648,0.610,��,12.1,��
2021/03/14,11:40,0.625,0.904,0.580,1.132,0.774,0.369,0.650,0.612,��,10.3,��
2021/03/14,11:50,0.625,0.906,0.579,1.130,0.777,0.368,0.648,0.611,��,10.8,��
2021/03/14,12:00,0.627,0.907,0.580,1.131,0.774,0.368,0.649,0.610,��,13.3,��
2021/03/14,12:10,0.628,0.905,0.581,1.132,0.775,0.368,0.649,0.610,��,9.5,��
2021/03/14,12:20,0.626,0.905,0.579,1.133,0.774,0.370,0.649,0.608,��,9.1,��
2021/03/14,12:30,0.627,0.906,0.581,1.132,0.774,0.369,0.648,0.609,��,6.6,��
2021/03/14,12:40,0.627,0.907,0.581,1.135,0.777,0.369,0.648,0.609,��,10.0,��
2021/03/14,12:50,0.627,0.904,0.581,1.132,0.776,0.369,0.649,0.609,��,12.1,��
2021/03/14,13:00,0.627,0.906,0.580,1.135,0.776,0.368,0.649,0.610,��,10.5,��
2021/03/14,13:10,0.625,0.907,0.581,1.132,0.776,0.369,0.648,0.610,��,9.8,��
2021/03/14,13:20,0.629,0.906,0.581,1.134,0.775,0.369,0.648,0.609,��,11.1,��
2021/03/14,13:30,0.628,0.905,0.581,1.134,0.776,0.369,0.647,0.608,��,10.6,��
2021/03/14,13:40,0.628,0.907,0.583,1.132,0.775,0.370,0.649,0.609,��,10.7,��
2021/03/14,13:50,0.626,0.906,0.581,1.135,0.774,0.369,0.649,0.608,��,9.5,��
2021/03/14,14:00,0.627,0.904,0.582,1.135,0.776,0.369,0.648,0.611,��,10.0,��
2021/03/14,14:10,0.628,0.906,0.582,1.136,0.776,0.369,0.649,0.609,��,9.9,��
2021/03/14,14:20,0.626,0.905,0.581,1.137,0.776,0.370,0.649,0.610,��,7.7,��
2021/03/14,14:30,0.629,0.907,0.583,1.136,0.776,0.369,0.649,0.612,���k��,10.2,��
2021/03/14,14:40,0.628,0.907,0.582,1.135,0.778,0.370,0.650,0.608,���k��,8.1,��
2021/03/14,14:50,0.628,0.904,0.581,1.137,0.779,0.370,0.649,0.611,��,8.2,��
2021/03/14,15:00,0.627,0.907,0.583,1.137,0.777,0.371,0.648,0.609,��,10.2,��
2021/03/14,15:10,0.627,0.908,0.582,1.139,0.778,0.370,0.650,0.610,��,10.5,��
2021/03/14,15:20,0.629,0.908,0.583,1.138,0.779,0.370,0.650,0.611,��,10.2,��
2021/03/14,15:30,0.628,0.906,0.583,1.137,0.781,0.370,0.648,0.610,��,12.0,��
2021/03/14,15:40,0.627,0.908,0.583,1.137,0.780,0.370,0.649,0.610,��,11.8,��
2021/03/14,15:50,0.628,0.906,0.582,1.137,0.779,0.370,0.651,0.612,��,11.6,��
2021/03/14,16:00,0.629,0.907,0.581,1.135,0.780,0.370,0.650,0.611,��,9.6,��
2021/03/14,16:10,0.627,0.910,0.583,1.138,0.781,0.369,0.651,0.610,��,9.5,��
2021/03/14,16:20,0.628,0.910,0.583,1.139,0.782,0.369,0.649,0.611,��,9.9,��
2021/03/14,16:30,0.628,0.912,0.584,1.137,0.783,0.371,0.650,0.611,���k��,9.3,��
2021/03/14,16:40,0.628,0.911,0.583,1.138,0.782,0.369,0.649,0.613,���k��,7.7,��
2021/03/14,16:50,0.629,0.912,0.584,1.137,0.783,0.369,0.649,0.612,���k��,7.5,��
2021/03/14,17:00,0.627,0.910,0.582,1.137,0.785,0.369,0.649,0.613,���k��,8.2,��
2021/03/14,17:10,0.626,0.913,0.583,1.139,0.784,0.369,0.649,0.613,���k��,8.7,��
2021/03/14,17:20,0.627,0.909,0.581,1.140,0.782,0.369,0.650,0.613,���k��,9.6,��
2021/03/14,17:30,0.627,0.913,0.583,1.139,0.784,0.371,0.649,0.612,���k��,10.8,��
2021/03/14,17:40,0.628,0.913,0.584,1.138,0.783,0.369,0.649,0.612,���k��,8.1,��
2021/03/14,17:50,0.627,0.913,0.582,1.137,0.784,0.368,0.650,0.614,���k��,6.8,��
2021/03/14,18:00,0.629,0.911,0.582,1.140,0.784,0.369,0.650,0.612,���k��,8.4,��
2021/03/14,18:10,0.627,0.914,0.582,1.139,0.784,0.370,0.649,0.611,���k��,7.2,��
2021/03/14,18:20,0.629,0.914,0.581,1.137,0.783,0.370,0.650,0.612,���k��,9.5,��
2021/03/14,18:30,0.628,0.912,0.582,1.139,0.785,0.370,0.649,0.612,���k��,7.5,��
2021/03/14,18:40,0.627,0.914,0.581,1.140,0.784,0.369,0.651,0.611,���k��,6.2,��
2021/03/14,18:50,0.627,0.914,0.582,1.141,0.784,0.369,0.650,0.611,���k��,7.6,��
2021/03/14,19:00,0.628,0.913,0.584,1.140,0.785,0.369,0.652,0.612,���k��,6.6,��
2021/03/14,19:10,0.627,0.914,0.582,1.142,0.787,0.368,0.651,0.613,���k��,8.1,��
2021/03/14,19:20,0.628,0.912,0.584,1.142,0.786,0.369,0.651,0.612,���k��,8.6,��
2021/03/14,19:30,0.628,0.915,0.583,1.140,0.785,0.369,0.649,0.612,���k��,9.6,��
2021/03/14,19:40,0.628,0.914,0.583,1.140,0.785,0.369,0.651,0.613,���k��,9.3,��
2021/03/14,19:50,0.627,0.915,0.581,1.143,0.786,0.369,0.650,0.612,���k��,9.3,��
2021/03/14,20:00,0.629,0.913,0.583,1.139,0.786,0.368,0.651,0.613,���k��,9.7,��
2021/03/14,20:10,0.628,0.915,0.582,1.140,0.786,0.369,0.649,0.613,��,12.1,��
2021/03/14,20:20,0.629,0.914,0.583,1.140,0.785,0.370,0.650,0.615,���k��,10.8,��
2021/03/14,20:30,0.627,0.913,0.583,1.141,0.786,0.369,0.651,0.613,��,7.9,��
2021/03/14,20:40,0.628,0.912,0.582,1.141,0.785,0.369,0.651,0.612,���k��,8.3,��
2021/03/14,20:50,0.629,0.917,0.584,1.143,0.787,0.370,0.651,0.612,���k��,6.8,��
2021/03/14,21:00,0.628,0.914,0.585,1.141,0.787,0.368,0.650,0.613,���k��,6.6,��
2021/03/14,21:10,0.629,0.917,0.582,1.141,0.787,0.369,0.651,0.613,���k��,7.1,��
2021/03/14,21:20,0.629,0.915,0.582,1.140,0.785,0.369,0.651,0.612,���k��,3.7,��
2021/03/14,21:30,0.628,0.914,0.582,1.141,0.787,0.368,0.649,0.612,��,7.0,��
2021/03/14,21:40,0.627,0.915,0.585,1.141,0.786,0.370,0.652,0.611,��,9.9,��
2021/03/14,21:50,0.629,0.915,0.584,1.140,0.785,0.370,0.651,0.612,��,10.6,��
2021/03/14,22:00,0.627,0.914,0.584,1.145,0.788,0.369,0.651,0.613,��,10.8,��
2021/03/14,22:10,0.629,0.915,0.583,1.143,0.789,0.369,0.652,0.613,��,10.8,��
2021/03/14,22:20,0.629,0.913,0.583,1.143,0.790,0.370,0.650,0.611,��,11.1,��
2021/03/14,22:30,0.630,0.912,0.584,1.143,0.788,0.369,0.650,0.613,��,8.8,��
2021/03/14,22:40,0.629,0.914,0.583,1.143,0.788,0.371,0.651,0.614,��,9.4,��
2021/03/14,22:50,0.629,0.912,0.584,1.142,0.789,0.370,0.651,0.613,��,6.7,��
2021/03/14,23:00,0.630,0.914,0.584,1.145,0.788,0.368,0.651,0.613,��,10.2,��
2021/03/14,23:10,0.630,0.914,0.582,1.142,0.788,0.368,0.651,0.614,��,10.9,��
2021/03/14,23:20,0.628,0.913,0.584,1.145,0.789,0.371,0.651,0.613,��,9.0,��
2021/03/14,23:30,0.629,0.915,0.583,1.145,0.788,0.371,0.649,0.612,��,8.7,��
2021/03/14,23:40,0.628,0.913,0.584,1.145,0.791,0.370,0.650,0.613,���k��,9.1,��
2021/03/14,23:50,0.629,0.913,0.584,1.143,0.789,0.369,0.653,0.613,��,8.3,��
